NF3Q Weather Reports


Display with metric or nautical units.
time (UTC)temp
F
wind
direction
speed
MPH
gust
MPH
rain 1hr
in
rain 24hr
in
rain mn
in
humidity
%
barometer
mb
20260504034516 43 143 0.0 0.0 0.00 0.00 0.00 73 1013.7
20260504034004 44 143 0.0 0.0 0.00 0.00 0.00 73 1013.6
20260504033507 44 143 0.0 0.0 0.00 0.00 0.00 72 1013.5
20260504033020 44 143 0.0 0.0 0.00 0.00 0.00 72 1013.5
20260504032506 44 144 0.0 0.0 0.00 0.00 0.00 71 1013.5
20260504032004 45 143 0.0 0.0 0.00 0.00 0.00 71 1013.6
20260504031512 45 143 0.0 0.0 0.00 0.00 0.00 70 1013.6
20260504031004 45 143 0.0 0.0 0.00 0.00 0.00 69 1013.6
20260504030504 45 143 0.0 0.0 0.00 0.00 0.00 69 1013.6
20260504030018 46 143 0.0 0.0 0.00 0.00 0.00 68 1013.7
20260504025507 46 143 0.0 0.0 0.00 0.00 0.00 67 1013.7
20260504025007 46 143 0.0 0.0 0.00 0.00 0.00 67 1013.8
20260504024515 47 143 0.0 0.0 0.00 0.00 0.00 66 1013.8
20260504024004 47 143 0.0 0.0 0.00 0.00 0.00 66 1013.8
20260504023504 47 143 0.0 0.0 0.00 0.00 0.00 65 1013.9
20260504023016 47 143 0.0 0.0 0.00 0.00 0.00 64 1013.9
20260504022505 48 144 0.0 0.0 0.00 0.00 0.00 64 1013.8
20260504022007 48 144 0.0 0.0 0.00 0.00 0.00 63 1013.8
20260504021510 48 146 0.0 0.0 0.00 0.00 0.00 62 1013.9
20260504021002 49 146 0.0 0.0 0.00 0.00 0.00 61 1013.9
20260504020505 49 146 0.0 0.0 0.00 0.00 0.00 61 1013.8
20260504020016 49 146 0.0 0.0 0.00 0.00 0.00 60 1013.8
20260504015507 50 146 0.0 0.0 0.00 0.00 0.00 59 1013.8
20260504015010 50 146 0.0 0.0 0.00 0.00 0.00 58 1013.9
20260504014520 51 146 0.0 0.0 0.00 0.00 0.00 57 1013.9
20260504014008 51 146 0.0 0.0 0.00 0.00 0.00 56 1013.8
20260504013504 51 146 0.0 0.0 0.00 0.00 0.00 55 1013.7
20260504013017 52 146 0.0 0.0 0.00 0.00 0.00 54 1013.8
20260504012505 52 146 0.0 0.0 0.00 0.00 0.00 53 1013.7
20260504012005 53 146 0.0 0.0 0.00 0.00 0.00 52 1013.5
20260504011518 53 146 0.0 0.0 0.00 0.00 0.00 51 1013.5
20260504011004 54 146 0.0 0.0 0.00 0.00 0.00 49 1013.5
20260504010504 54 146 0.0 0.0 0.00 0.00 0.00 46 1013.6
20260504010015 55 146 0.0 0.0 0.00 0.00 0.00 46 1013.6
20260504005504 55 146 0.0 0.0 0.00 0.00 0.00 43 1013.7
20260504005007 56 146 0.0 0.0 0.00 0.00 0.00 42 1013.7
20260504004521 56 157 0.0 0.0 0.00 0.00 0.00 41 1013.7
20260504004008 56 166 0.0 0.0 0.00 0.00 0.00 40 1013.7
20260504003508 56 166 0.0 0.0 0.00 0.00 0.00 40 1013.5
20260504003017 56 219 0.0 0.0 0.00 0.00 0.00 41 1013.5
20260504002504 57 240 0.0 0.0 0.00 0.00 0.00 40 1013.5
20260504002006 57 205 0.0 0.0 0.00 0.00 0.00 39 1013.6
20260504001522 57 273 0.0 5.0 0.00 0.00 0.00 40 1013.6
20260504001005 57 267 0.0 5.0 0.00 0.00 0.00 38 1013.6
20260504000508 57 194 0.0 5.0 0.00 0.00 0.00 39 1013.6
20260504000020 58 225 0.0 7.0 0.00 0.00 0.00 38 1013.4
20260503235504 58 304 0.0 7.0 0.00 0.00 0.00 38 1013.5
20260503235007 58 155 0.0 3.0 0.00 0.00 0.00 38 1013.4
20260503234522 58 318 0.0 3.0 0.00 0.00 0.00 39 1013.5
20260503234007 58 265 0.0 3.0 0.00 0.00 0.00 38 1013.5
20260503233507 58 14 0.0 3.0 0.00 0.00 0.00 38 1013.5
20260503233024 58 178 0.0 6.0 0.00 0.00 0.00 38 1013.5
20260503232509 59 286 0.0 5.0 0.00 0.00 0.00 36 1013.6
20260503232008 59 344 0.0 5.0 0.00 0.00 0.00 36 1013.5
20260503231521 59 190 1.0 5.0 0.00 0.00 0.00 36 1013.6
20260503231008 59 304 0.0 7.0 0.00 0.00 0.00 37 1013.6
20260503230508 60 283 0.0 7.0 0.00 0.00 0.00 36 1013.6
20260503230019 60 212 0.0 8.0 0.00 0.00 0.00 36 1013.7
20260503225504 60 13 0.0 8.0 0.00 0.00 0.00 36 1013.7
20260503225007 60 164 1.0 6.0 0.00 0.00 0.00 35 1013.7
20260503224515 60 279 0.0 3.0 0.00 0.00 0.00 36 1013.7
20260503224007 60 190 0.0 4.0 0.00 0.00 0.00 35 1013.7
20260503223508 60 265 0.0 4.0 0.00 0.00 0.00 36 1013.7
20260503223004 61 208 0.0 4.0 0.00 0.00 0.00 36 1013.8
20260503222503 60 232 0.0 4.0 0.00 0.00 0.00 36 1013.7
20260503222004 61 178 0.0 4.0 0.00 0.00 0.00 36 1013.8
20260503221504 61 301 0.0 4.0 0.00 0.00 0.00 36 1013.8
20260503221005 61 316 1.0 4.0 0.00 0.00 0.00 35 1013.8
20260503220506 61 295 0.0 10.0 0.00 0.00 0.00 35 1013.8
20260503220012 61 317 0.0 10.0 0.00 0.00 0.00 36 1013.8
20260503215505 61 352 0.0 9.0 0.00 0.00 0.00 35 1013.9
20260503215006 62 312 2.0 9.0 0.00 0.00 0.00 37 1013.7
20260503214514 61 288 1.0 7.0 0.00 0.00 0.00 34 1013.6
20260503214004 61 209 2.0 7.0 0.00 0.00 0.00 34 1013.6
20260503213506 62 221 1.0 7.0 0.00 0.00 0.00 36 1013.7
20260503213027 61 211 0.0 5.0 0.00 0.00 0.00 36 1013.6
20260503212508 61 325 1.0 9.0 0.00 0.00 0.00 34 1013.6
20260503212004 61 337 0.0 9.0 0.00 0.00 0.00 35 1013.6
20260503211506 62 269 1.0 9.0 0.00 0.00 0.00 35 1013.6
20260503211004 61 332 2.0 8.0 0.00 0.00 0.00 35 1013.7
20260503210506 61 171 2.0 8.0 0.00 0.00 0.00 36 1013.6
20260503210015 61 309 0.0 8.0 0.00 0.00 0.00 34 1013.6
20260503205504 61 341 2.0 8.0 0.00 0.00 0.00 34 1013.7
20260503205004 61 309 0.0 8.0 0.00 0.00 0.00 35 1013.8
20260503204512 60 213 2.0 8.0 0.00 0.00 0.00 36 1014.0
20260503204006 60 280 1.0 11.0 0.00 0.00 0.00 33 1014.0
20260503203504 61 311 1.0 11.0 0.00 0.00 0.00 33 1014.1
20260503203023 61 229 2.0 7.0 0.00 0.00 0.00 34 1014.1
20260503202509 61 228 0.0 5.0 0.00 0.00 0.00 36 1014.0
20260503202008 61 188 0.0 5.0 0.00 0.00 0.00 35 1014.2
20260503201524 61 279 0.0 5.0 0.00 0.00 0.00 36 1014.2
20260503201003 60 288 0.0 6.0 0.00 0.00 0.00 39 1014.2
20260503200503 60 291 2.0 8.0 0.00 0.00 0.00 35 1014.4
20260503200006 61 254 3.0 8.0 0.00 0.00 0.00 34 1014.4
20260503195504 60 286 1.0 8.0 0.00 0.00 0.00 35 1014.5
20260503195005 60 165 0.0 6.0 0.00 0.00 0.00 35 1014.5
20260503194516 59 320 0.0 9.0 0.00 0.00 0.00 37 1014.5
20260503194005 59 277 4.0 9.0 0.00 0.00 0.00 35 1014.7
20260503193508 59 211 0.0 11.0 0.00 0.00 0.00 36 1014.7
20260503193019 59 93 0.0 11.0 0.00 0.00 0.00 38 1014.7
20260503192505 59 252 2.0 10.0 0.00 0.00 0.00 37 1014.9
20260503192006 60 69 1.0 9.0 0.00 0.00 0.00 36 1014.9
20260503191520 60 247 1.0 9.0 0.00 0.00 0.00 36 1015.1
20260503191011 60 225 2.0 13.0 0.00 0.00 0.00 37 1015.1
20260503190509 59 304 1.0 13.0 0.00 0.00 0.00 39 1015.1
20260503190006 59 294 2.0 9.0 0.00 0.00 0.00 36 1015.1
20260503185503 59 250 0.0 8.0 0.00 0.00 0.00 39 1015.1
20260503185003 59 226 3.0 10.0 0.00 0.00 0.00 38 1015.3
20260503184509 58 351 0.0 10.0 0.00 0.00 0.00 39 1015.2
20260503184010 58 318 0.0 9.0 0.00 0.00 0.00 38 1015.4
20260503183507 58 275 0.0 9.0 0.00 0.00 0.00 37 1015.4
20260503183015 58 319 1.0 12.0 0.00 0.00 0.00 39 1015.6
20260503182507 59 285 4.0 12.0 0.00 0.00 0.00 36 1015.7
20260503182006 59 337 0.0 9.0 0.00 0.00 0.00 37 1015.7
20260503181519 59 308 1.0 9.0 0.00 0.00 0.00 39 1015.5
20260503181009 58 215 3.0 8.0 0.00 0.00 0.00 39 1015.6
20260503180506 58 80 1.0 7.0 0.00 0.00 0.00 38 1015.8
20260503180031 58 333 2.0 6.0 0.00 0.00 0.00 36 1015.9
20260503175509 58 288 0.0 8.0 0.00 0.00 0.00 37 1015.9
20260503175002 58 348 1.0 8.0 0.00 0.00 0.00 37 1015.9
20260503174518 58 275 1.0 10.0 0.00 0.00 0.00 37 1015.9
20260503174004 58 272 1.0 10.0 0.00 0.00 0.00 1016.1
20260503173503 58 297 3.0 8.0 0.00 0.00 0.00 37 1016.2
20260503173015 58 36 0.0 9.0 0.00 0.00 0.00 37 1016.1
20260503172508 58 310 0.0 9.0 0.00 0.00 0.00 39 1016.2
20260503172006 58 290 2.0 9.0 0.00 0.00 0.00 36 1016.2
20260503171520 57 252 0.0 5.0 0.00 0.00 0.00 39 1016.2
20260503171008 57 329 0.0 7.0 0.00 0.00 0.00 42 1016.3
20260503170511 57 304 1.0 7.0 0.00 0.00 0.00 1016.3
20260503151008 52 313 1.0 10.0 0.00 0.01 0.00 43 1017.6
20260503150509 52 317 3.0 10.0 0.00 0.01 0.00 42 1017.5
20260503131005 45 194 0.0 2.0 0.00 0.01 0.00 67 1017.9
20260503130508 45 244 0.0 2.0 0.00 0.01 0.00 71 1018.0
20260503110509 31 171 0.0 0.0 0.00 0.01 0.00 92 1017.3
20260503090509 32 171 0.0 0.0 0.00 0.02 0.00 89 1016.6
20260503081527 34 171 0.0 0.0 0.00 0.02 0.00 88 1016.5
20260503081006 34 171 0.0 0.0 0.00 0.02 0.00 88 1016.5
20260503080510 34 171 0.0 0.0 0.00 0.02 0.00 88 1016.4
20260503072506 35 82 0.0 0.0 0.00 0.02 0.00 88 1016.3
20260503072007 35 75 0.0 0.0 0.00 0.02 0.00 88 1016.3
20260503071535 35 76 0.0 0.0 0.00 0.02 0.00 88 1016.2
20260503071008 35 76 0.0 0.0 0.00 0.02 0.00 88 1016.0
20260503070509 35 76 0.0 0.0 0.00 0.02 0.00 88 1016.1
20260503055007 35 332 0.0 0.0 0.00 0.02 0.00 89 1016.3
20260503054534 35 333 0.0 0.0 0.00 0.02 0.00 89 1016.3
20260503054011 35 333 0.0 0.0 0.00 0.02 0.00 88 1016.4
20260503053507 35 333 0.0 0.0 0.00 0.02 0.00 88 1016.4
20260503053029 35 333 0.0 0.0 0.00 0.02 0.00 89 1016.5
20260503052509 35 333 0.0 0.0 0.00 0.02 0.00 88 1016.5
20260503052009 35 333 0.0 0.0 0.00 0.02 0.00 88 1016.6
20260503051516 35 333 0.0 0.0 0.00 0.02 0.00 88 1016.5
20260503051006 35 331 0.0 0.0 0.00 0.02 0.00 87 1016.6
20260503050507 35 331 0.0 0.0 0.00 0.02 0.00 87 1016.5
20260503050026 35 331 0.0 0.0 0.00 0.02 0.00 87 1016.5
20260503045504 35 331 0.0 0.0 0.00 0.02 0.00 87 1016.6
20260503045004 35 331 0.0 0.0 0.00 0.02 0.00 86 1016.6
20260503044506 35 331 0.0 0.0 0.00 0.02 0.00 86 1016.6
20260503044003 36 331 0.0 0.0 0.00 0.02 0.00 86 1016.6
20260503043508 36 331 0.0 0.0 0.00 0.02 0.00 85 1016.7
20260503043022 36 331 0.0 0.0 0.00 0.02 0.00 85 1016.6
20260503042504 36 331 0.0 0.0 0.00 0.02 0.00 85 1016.6
20260503042010 36 331 0.0 0.0 0.00 0.02 0.00 85 1016.5
20260503041523 37 331 0.0 0.0 0.00 0.02 0.00 85 1016.6
20260503041007 37 331 0.0 0.0 0.00 0.02 0.00 84 1016.6
20260503040506 37 331 0.0 0.0 0.00 0.02 0.00 84 1016.7
20260503040021 37 331 0.0 0.0 0.00 0.02 0.00 84 1016.6
20260503035506 37 331 0.0 0.0 0.00 0.02 0.02 84 1016.7
20260503035001 38 331 0.0 0.0 0.00 0.02 0.02 83 1016.6